Back to catalog

FENGYUN 1C DEB

AliveSSO
NORAD 31837·DEBRIS·🇨🇳 China

Launched May 10, 1999 from Taiyuan Satellite Launch Center

Loading…

Next Passes (next 24 hours)

TLE

AgingSource: Space-Track

Epoch: Sep 6, 2026, 12:05 UTC

1 31837U 99025CJB 26249.50388274  .00004953  00000-0  52255-3 0  9990
2 31837  98.0815 334.1238 0084932 224.8248 134.6086 14.87132345 23264

Track FENGYUN 1C DEB in real time with AllMySat

Download on the App Store